Theta_e
353 357 357 358 355 355 358 356 355 357 356 356 359 361 362 363 363 363 363 363 361 362 364 365 365 366 365 365 366 367 367 367 368 368 368 367 367 366 365 365 364 364 364 363 364 365 365 364 364 364 363 362 361 361 361 360 362 360 359 360 360 359 359 358 357 358 358 358 358 357 357 358 357 357 357 356 354 355 355 354 354 353 355 355 355
356 359 358 358 356 356 357 357 358 359 357 360 364 363 363 363 363 363 363 364 363 363 364 364 365 365 365 366 367 367 367 367 368 368 367 367 366 366 365 365 364 364 364 364 364 364 364 364 364 363 362 362 361 361 361 360 361 360 359 359 360 360 360 360 360 358 357 357 358 357 358 357 358 357 357 356 355 354 354 354 354 354 356 356 356
360 361 361 360 358 358 360 361 358 360 359 361 362 363 363 363 363 363 365 364 365 365 364 364 365 365 366 366 366 366 367 367 367 367 366 366 366 365 365 364 364 365 365 364 363 364 363 364 363 362 362 363 362 361 362 362 361 361 361 361 360 360 361 361 361 359 356 356 356 357 358 358 358 357 357 356 355 354 354 356 355 357 354 355 355
356 358 362 361 360 360 362 361 363 363 364 363 363 363 363 363 363 365 365 365 365 363 364 364 364 364 365 366 366 366 366 367 367 367 366 366 365 365 365 364 364 364 364 365 365 364 364 363 362 363 363 363 362 362 362 363 362 361 361 360 359 360 360 359 359 359 358 357 358 357 357 355 356 357 356 356 355 355 356 357 356 356 356 356 357
359 361 359 361 361 360 360 362 362 363 362 362 363 364 363 363 363 364 365 364 363 363 363 363 363 364 365 366 366 366 366 366 366 366 366 366 365 365 364 364 364 364 364 364 364 364 364 364 363 362 362 362 363 363 362 361 362 361 361 362 361 361 359 359 359 359 359 358 357 354 356 356 356 357 356 356 355 355 355 356 356 356 353 356 357
360 361 361 360 360 361 360 361 362 363 363 363 364 364 365 363 363 364 364 362 363 363 363 363 363 364 365 365 366 366 365 365 366 365 365 365 365 365 364 364 364 364 363 363 364 364 364 363 363 363 362 361 361 363 362 361 361 360 361 361 361 360 360 359 360 359 359 359 359 359 357 356 355 355 356 355 355 355 354 357 357 355 355 356 356
359 361 361 361 361 362 359 361 362 363 363 363 363 364 363 363 364 365 365 364 363 363 363 363 363 364 365 365 365 366 366 366 366 364 364 365 365 364 364 365 364 364 364 364 363 363 363 363 363 364 364 363 362 362 362 361 360 360 360 361 361 360 359 359 359 360 359 362 361 355 354 354 353 353 356 356 356 356 355 356 355 358 356 356 355
360 360 360 360 361 361 360 361 362 364 363 364 363 364 363 363 364 364 364 364 364 363 363 363 364 364 364 365 365 365 365 366 365 364 364 364 363 364 364 363 362 363 364 362 362 363 364 364 364 363 364 364 363 362 362 362 363 361 360 359 359 360 359 359 360 361 361 364 360 357 356 357 355 352 357 356 356 356 356 356 355 357 356 354 355
358 359 359 359 361 362 361 362 363 364 365 364 365 364 364 364 364 365 365 364 364 364 364 363 364 364 364 365 365 365 365 365 364 363 364 363 363 364 364 363 362 363 363 362 362 363 363 363 363 363 363 363 363 363 363 363 363 362 360 359 359 360 360 361 360 360 361 363 362 357 357 354 354 353 357 357 357 357 355 354 356 357 356 356 355
357 358 360 360 360 363 362 363 364 365 365 365 365 365 364 364 364 364 365 365 364 364 364 364 364 364 364 365 366 365 363 363 362 362 363 362 363 365 364 363 362 363 362 361 362 363 363 362 362 363 363 363 362 362 362 362 362 362 362 361 360 361 360 360 361 360 359 363 360 360 356 358 356 351 357 357 357 356 357 354 353 354 355 355 354
358 360 364 360 362 364 365 365 365 365 365 365 365 365 364 364 364 365 365 365 364 365 365 365 364 363 363 364 365 364 364 363 362 362 362 363 364 364 364 363 363 362 361 362 362 363 362 363 363 362 363 363 362 361 361 361 361 362 362 362 362 361 360 359 360 360 361 360 361 358 352 358 355 354 358 357 356 356 355 357 356 355 356 356 356
358 361 362 364 368 364 365 365 364 366 366 366 365 365 365 365 364 364 364 365 365 365 365 364 364 363 363 364 364 364 364 362 362 362 363 363 364 363 363 362 361 361 362 362 362 362 363 362 362 362 361 362 361 361 361 360 360 361 362 362 362 362 361 360 360 359 360 360 357 355 354 356 355 353 357 358 357 356 356 357 357 356 354 355 353
358 358 362 364 364 364 364 365 365 365 366 366 366 365 366 365 364 364 364 364 365 364 364 364 363 363 363 363 363 363 363 362 362 362 363 364 364 364 363 362 361 361 362 364 364 364 363 362 361 360 360 360 360 360 360 359 360 360 361 361 361 362 362 362 361 358 358 360 357 358 355 357 355 357 357 357 358 357 356 356 355 355 355 354 353
359 360 360 360 363 367 364 364 365 365 365 365 366 366 365 364 365 364 364 364 364 364 363 363 363 363 363 362 362 363 363 363 362 363 363 364 364 364 362 361 361 362 364 364 362 362 362 360 360 361 360 360 360 359 359 360 359 360 360 360 360 360 361 361 360 359 358 355 358 353 358 363 356 357 357 357 358 358 357 357 356 355 355 354 354
360 362 361 363 364 365 366 364 366 365 365 365 365 365 365 365 365 364 363 363 364 363 363 362 363 363 363 362 362 363 363 363 364 364 364 364 363 361 362 362 363 363 363 362 361 360 360 360 360 360 360 360 360 359 359 359 359 359 359 359 360 359 360 363 360 357 356 354 356 354 357 359 359 357 356 356 357 357 357 357 356 355 355 354 354
360 360 363 364 364 367 367 367 365 364 365 366 365 365 365 365 365 364 363 363 363 363 362 363 363 363 363 363 363 363 364 364 364 364 364 363 363 362 363 363 362 362 363 362 360 359 359 359 360 360 360 360 360 360 360 359 358 359 358 359 360 358 360 362 362 358 356 357 359 357 357 356 359 358 357 356 356 358 358 357 357 355 355 355 354
361 363 362 363 365 364 364 366 365 364 365 366 366 366 365 365 365 364 363 363 363 363 363 363 363 363 363 363 363 363 364 363 364 364 364 363 363 362 362 362 359 360 363 363 361 360 360 359 360 360 360 360 360 361 361 360 359 358 359 359 360 360 361 360 360 360 356 357 359 356 358 358 359 358 358 356 355 358 358 357 357 356 355 354 354
362 364 364 365 364 364 363 365 366 368 367 367 366 366 366 366 365 364 364 363 363 363 364 364 364 364 363 363 364 364 364 364 363 364 363 363 362 361 362 360 359 360 363 362 361 361 360 360 360 360 360 360 361 362 361 361 360 360 359 359 360 360 360 362 358 354 358 359 357 359 361 360 359 359 358 357 356 357 358 358 357 357 356 354 354
360 362 363 365 361 363 363 366 368 367 367 366 367 368 367 366 365 364 364 364 364 364 364 364 364 365 365 364 365 364 364 364 364 363 362 363 364 361 363 359 360 360 362 363 361 361 361 361 360 360 360 361 361 362 362 361 362 361 360 360 361 361 361 361 360 361 360 355 358 359 361 358 358 359 358 357 356 356 357 357 358 357 356 355 355
361 360 361 362 362 363 363 363 366 365 366 365 366 368 367 366 365 364 364 364 364 365 365 365 365 365 365 365 364 365 364 365 365 365 363 362 362 363 360 359 359 362 363 363 363 363 362 361 361 360 361 361 361 362 362 361 360 360 360 360 362 363 363 365 359 362 359 360 360 361 359 360 360 359 359 358 357 356 357 357 358 357 356 355 355
358 361 363 361 361 361 363 362 365 365 364 364 364 365 367 366 365 364 365 365 365 365 365 365 366 366 365 364 365 366 364 365 367 363 365 364 365 361 360 357 359 362 362 363 363 362 360 362 362 361 360 362 362 363 363 361 359 359 360 360 360 360 363 359 359 359 363 366 362 361 359 359 360 360 360 359 358 357 357 357 357 357 357 356 356
357 359 363 363 362 364 363 365 365 364 364 364 364 364 368 366 367 368 368 367 366 366 367 365 366 365 364 365 365 364 367 364 367 364 365 365 364 364 360 357 359 363 363 361 363 360 356 358 360 363 363 363 364 364 366 362 360 360 360 363 363 364 365 360 359 358 361 362 361 361 359 360 361 360 360 360 358 357 357 357 357 356 356 357 356
356 358 360 361 364 363 364 364 365 364 363 364 363 365 367 367 366 366 365 365 366 367 365 365 365 367 365 364 365 366 361 363 367 364 364 361 363 364 362 358 360 361 362 362 363 358 356 356 357 358 361 362 366 364 360 362 366 362 361 361 366 360 361 362 361 358 356 356 364 360 361 362 361 361 361 360 359 358 357 358 357 357 356 356 356
354 355 356 359 359 359 363 363 363 363 363 363 364 365 364 367 365 365 365 365 366 365 366 365 364 366 368 365 365 368 366 365 363 366 362 355 354 361 362 362 361 362 363 364 363 361 357 359 360 360 360 362 364 360 356 360 359 360 361 358 357 359 361 360 357 357 355 359 360 359 359 359 360 361 361 360 359 356 357 357 358 358 357 357 356
355 356 357 358 358 358 359 361 363 363 364 363 363 364 363 365 367 364 365 362 363 363 363 365 366 367 367 366 364 365 364 364 366 365 361 359 364 363 366 363 367 367 364 365 365 363 360 361 363 360 362 359 357 359 358 356 357 358 356 357 357 360 358 359 357 356 359 359 360 360 358 359 359 359 361 360 360 359 357 356 358 358 358 357 357
357 355 355 358 358 359 360 361 363 363 363 365 363 364 365 361 366 363 363 363 363 363 363 363 362 366 365 365 363 363 363 363 362 363 361 360 359 358 364 366 364 363 363 365 360 360 358 357 360 359 358 358 357 360 359 358 355 356 353 356 356 358 358 358 357 360 360 360 359 358 358 359 359 359 360 360 361 360 359 358 357 358 359 358 357
354 356 356 358 359 359 360 362 362 364 364 365 364 365 364 363 362 360 361 362 363 363 361 361 363 365 364 365 361 360 361 360 362 362 361 363 360 359 357 359 360 362 362 360 358 360 358 357 357 360 361 358 357 358 358 357 357 352 351 350 351 351 351 351 352 356 359 359 358 358 359 358 358 359 359 360 360 360 359 359 359 358 356 358 357
354 357 357 356 358 358 360 362 362 362 363 366 364 364 364 362 362 363 362 361 360 361 360 362 364 366 367 366 363 364 359 358 360 361 360 362 361 360 362 357 356 358 360 359 356 358 357 357 359 359 359 360 356 358 354 352 350 352 349 349 349 350 350 348 350 351 351 352 362 359 358 358 358 357 358 360 361 359 359 358 359 358 357 356 358
352 355 356 356 356 358 360 361 362 363 362 363 362 363 363 363 363 362 360 363 362 360 362 364 364 366 368 367 368 361 360 360 359 359 360 360 360 361 359 358 359 358 360 357 358 359 358 358 359 358 359 360 357 354 353 349 350 349 346 345 345 346 347 350 349 349 349 349 351 360 359 360 357 358 359 359 360 360 359 358 357 358 359 359 359
352 355 356 357 357 359 359 360 362 363 362 360 362 361 363 362 365 364 362 363 361 363 364 361 362 362 363 367 364 363 361 358 359 360 360 360 362 363 362 358 357 360 358 358 356 356 356 357 358 360 358 358 355 353 350 347 345 344 347 348 345 345 347 346 348 346 350 350 351 364 360 359 358 358 358 358 360 359 359 359 356 356 357 359 358
353 352 354 356 358 358 358 360 362 364 363 359 361 362 365 366 365 366 367 365 362 364 365 363 361 360 362 369 371 367 364 362 360 360 360 360 362 362 361 361 358 359 358 357 359 358 359 358 359 359 358 357 357 352 349 347 348 346 347 345 347 347 345 347 345 344 345 350 350 354 361 360 358 360 359 358 359 359 358 359 360 358 359 358 359
352 352 354 357 356 356 356 359 360 363 363 359 361 361 363 366 368 366 365 367 368 364 363 363 361 361 364 370 373 368 366 364 366 366 364 361 361 359 360 361 360 357 359 358 359 361 361 360 361 363 359 358 354 349 350 346 346 345 347 344 346 346 344 344 340 340 342 344 344 350 353 359 360 358 359 359 359 360 359 359 359 360 359 359 359
353 354 357 356 354 355 356 358 360 363 363 359 359 361 362 365 366 366 367 366 368 367 364 363 365 365 367 370 372 373 370 367 368 367 365 363 361 363 360 360 360 360 360 362 363 363 361 360 359 361 360 355 350 350 350 346 344 347 347 346 346 347 349 346 346 344 340 342 344 349 350 352 361 360 357 359 361 360 361 360 360 359 360 359 359
353 355 356 355 355 355 355 356 358 360 363 360 360 359 362 365 366 366 367 367 366 365 365 366 367 365 367 370 371 373 369 368 368 369 368 364 361 361 361 359 360 363 364 365 364 359 359 357 356 356 354 350 347 349 346 347 345 346 346 346 347 349 346 346 343 343 340 341 345 347 346 347 349 359 360 358 357 360 360 360 360 359 359 359 358
353 355 355 357 357 357 356 356 358 360 363 360 359 361 362 362 364 365 366 366 368 366 363 365 363 364 364 365 370 373 369 369 370 372 368 365 361 358 361 361 362 360 360 363 362 360 357 355 354 354 352 347 347 348 347 347 345 347 348 348 346 348 348 346 346 343 345 349 348 346 349 348 350 350 355 360 358 357 359 360 361 360 359 359 358
354 355 356 357 356 356 358 357 358 359 362 362 361 361 360 361 360 361 363 367 366 365 364 363 364 362 362 363 368 372 375 375 373 375 368 366 363 358 365 361 361 367 359 360 365 358 357 354 356 352 349 347 348 347 348 345 347 346 347 347 349 347 347 347 344 344 342 345 348 347 349 350 351 350 352 347 356 358 357 360 360 360 360 360 359
355 355 356 357 358 357 359 356 356 359 361 362 363 363 362 362 362 362 361 366 364 361 362 364 364 363 362 361 366 371 373 376 375 375 370 368 362 361 359 362 362 363 362 361 363 359 354 351 356 352 350 348 346 345 345 346 346 345 346 345 345 347 347 348 345 345 346 348 346 345 347 350 353 351 359 350 350 358 357 357 360 359 359 359 359
355 356 357 357 358 358 358 358 358 358 361 362 363 362 363 363 361 361 364 363 364 362 364 365 365 363 365 362 366 370 373 375 375 374 371 368 366 365 364 362 359 361 359 358 356 359 356 354 351 352 350 349 346 345 342 345 345 345 344 342 347 345 346 346 348 347 346 346 347 341 346 346 347 352 354 357 353 352 355 357 357 358 358 357 357
354 355 359 360 360 360 359 361 359 359 359 363 365 364 363 364 361 362 361 363 366 363 363 364 364 367 366 367 370 373 371 373 373 372 369 366 364 364 364 362 359 359 364 357 357 357 355 352 350 350 351 350 347 347 345 345 344 345 344 343 347 348 348 346 347 345 344 341 341 339 340 346 346 349 349 350 353 357 358 357 358 357 358 357 357
355 357 360 361 362 362 361 362 363 358 360 362 362 360 359 358 357 359 358 359 363 362 365 364 367 366 367 369 372 373 373 372 372 370 368 366 363 363 362 363 363 361 357 352 352 352 351 350 349 349 349 350 350 348 346 343 342 343 343 345 346 347 346 347 346 346 346 343 342 342 340 342 345 346 344 347 347 347 350 353 359 358 357 358 357
356 358 359 360 362 360 360 360 362 362 358 358 359 357 355 355 357 355 354 357 365 363 363 363 363 362 365 367 372 371 373 373 371 370 368 366 366 365 364 366 364 359 354 352 353 351 353 350 349 350 346 347 345 346 343 344 343 342 344 343 344 345 346 345 344 343 341 339 340 339 340 342 342 342 346 345 346 347 349 351 349 351 354 357 356
355 357 358 360 362 362 361 360 362 363 359 359 361 360 360 358 356 356 355 355 359 361 362 363 361 362 366 369 373 371 372 373 372 371 371 369 366 364 366 364 361 357 353 354 353 351 350 348 349 345 349 341 342 340 342 344 341 339 335 337 339 342 345 343 342 338 339 338 338 341 342 337 336 339 342 344 345 345 347 349 351 351 353 353 353
354 356 359 360 362 362 361 362 362 362 361 360 362 364 363 362 359 360 357 355 358 363 363 365 366 364 366 370 372 372 374 372 372 369 368 367 367 365 364 364 359 355 353 352 352 351 351 346 347 343 341 344 342 345 346 346 340 339 339 334 333 333 340 342 339 338 335 335 335 334 335 335 336 341 342 342 341 344 342 346 349 350 351 351 351
354 355 357 358 360 362 363 362 362 363 363 363 363 365 366 366 365 366 363 360 358 361 364 368 367 367 364 367 372 374 374 370 368 369 366 363 360 358 356 357 356 355 353 351 350 348 348 347 345 345 345 338 337 342 346 347 343 339 333 335 335 331 326 334 336 337 335 333 332 331 334 335 336 338 339 337 336 341 343 344 347 346 348 349 350
352 354 355 356 358 361 363 363 363 363 364 364 364 366 365 366 368 368 366 365 363 361 361 361 363 365 363 364 368 372 372 365 363 362 359 359 358 358 357 356 355 355 354 351 348 345 346 347 348 347 346 340 336 336 341 342 344 345 339 335 331 327 331 333 329 333 336 334 332 332 334 333 335 337 337 337 339 338 339 341 343 344 345 345 347
352 354 355 356 359 360 363 364 363 363 363 365 366 366 364 364 364 364 360 358 357 358 356 357 357 357 356 355 361 363 362 362 360 359 359 357 359 359 358 356 355 355 353 349 347 347 347 348 346 347 344 346 343 338 335 341 342 344 346 342 340 330 331 335 331 331 339 335 336 334 335 332 335 336 337 337 335 336 336 337 339 341 341 343 342
354 356 357 358 360 361 363 364 365 365 365 366 366 366 364 363 364 364 360 357 355 356 360 359 355 355 357 356 357 359 362 360 359 360 359 357 358 359 358 357 355 353 353 352 348 346 344 347 346 345 345 346 345 340 337 336 342 340 341 341 342 342 339 333 331 332 327 336 335 330 328 331 331 330 332 332 334 334 335 336 336 337 340 339 339
355 357 357 358 360 362 363 364 365 365 365 366 366 366 365 364 364 363 360 357 354 355 358 360 359 358 355 356 356 356 361 362 357 360 359 357 357 358 359 356 353 351 350 350 347 346 346 347 349 347 349 348 347 342 338 338 336 338 341 341 341 342 342 338 337 333 331 327 331 330 328 329 331 330 330 328 330 334 335 336 336 335 337 339 337
354 356 358 359 360 361 363 365 365 365 365 367 366 366 367 366 364 363 361 360 359 357 356 358 357 359 356 358 359 356 360 362 360 359 359 359 357 358 359 356 354 351 350 347 345 345 347 347 348 349 347 347 346 345 343 341 338 335 340 341 340 340 338 335 338 336 328 327 326 326 328 330 329 330 333 331 331 334 335 337 336 334 336 338 339
354 358 359 359 359 361 363 365 365 365 366 367 367 367 368 367 364 363 361 360 360 360 356 355 357 360 358 359 361 360 357 359 360 360 360 360 359 358 357 355 354 349 347 346 345 346 346 348 347 346 347 344 345 345 342 342 341 341 341 341 339 337 335 332 331 332 332 333 324 324 324 323 326 331 333 332 334 332 335 337 337 337 336 336 336
354 354 357 357 359 360 362 364 365 366 367 367 367 367 367 367 365 364 362 361 361 361 358 357 358 359 359 359 358 360 359 358 356 357 357 359 359 358 354 355 354 351 348 346 347 344 342 344 344 346 345 344 344 344 343 343 343 343 341 339 338 334 334 330 330 332 331 329 328 326 326 326 325 327 331 333 337 336 337 337 336 336 339 337 337
Wind_Speed
7 11 9 14 15 12 13 14 18 20 20 18 19 17 17 17 17 16 16 15 16 15 15 14 13 13 13 13 14 14 14 14 15 15 15 15 15 15 15 15 15 14 14 15 15 15 14 13 12 10 10 11 11 11 12 12 11 10 10 10 9 9 9 10 8 9 9 9 10 10 9 10 10 10 10 10 9 8 8 11 8 5 6 9 12
14 11 10 13 16 15 13 13 15 14 14 16 16 16 16 16 16 16 15 15 15 15 14 13 13 13 13 13 13 14 13 13 14 14 15 15 15 15 14 14 14 14 14 14 14 14 13 12 11 11 11 11 11 12 11 12 11 10 10 10 9 9 7 8 8 6 8 9 9 10 11 10 10 11 10 9 9 8 7 8 9 8 6 10 11
13 12 11 12 14 13 13 14 16 16 18 17 17 16 15 15 16 16 15 15 14 13 13 13 13 13 12 13 13 13 13 13 14 14 14 14 14 14 13 13 13 13 13 13 13 13 12 11 11 11 11 11 11 12 12 12 12 11 10 10 8 6 6 5 7 6 5 7 9 11 10 12 11 11 11 10 9 8 9 10 10 9 9 10 11
14 11 11 12 12 11 11 12 13 14 15 14 15 16 15 14 15 14 14 14 13 13 13 13 12 12 12 12 13 13 13 13 13 13 14 14 14 13 12 12 12 12 12 12 12 11 11 11 11 10 10 10 11 12 12 12 12 10 9 9 8 7 5 5 4 5 3 3 11 6 5 8 10 12 10 10 9 10 11 10 11 10 10 9 12
14 13 11 11 12 11 10 12 13 14 14 14 12 14 13 14 14 14 13 14 13 12 12 12 12 12 12 12 13 13 13 13 13 13 13 13 12 12 12 12 11 11 11 11 11 11 11 10 10 10 10 10 11 11 12 12 12 11 9 8 8 7 5 4 3 1 0 2 3 4 3 8 9 11 11 10 10 10 12 11 11 10 8 11 11
12 12 12 12 11 11 11 11 13 13 14 14 13 12 11 13 14 13 13 13 13 12 12 12 11 11 11 12 12 13 13 13 13 13 12 12 12 12 11 11 11 10 10 10 10 10 10 10 9 9 10 10 11 11 11 11 11 10 9 8 7 6 6 3 4 3 3 5 7 3 9 6 9 8 10 11 10 10 11 11 13 13 10 11 9
13 10 11 11 10 12 12 12 13 13 14 14 14 13 13 13 13 13 12 12 12 12 11 11 11 11 11 11 12 12 13 13 13 12 12 12 12 11 11 11 10 10 10 10 10 10 9 8 8 8 9 10 10 11 10 10 10 10 9 8 7 5 4 4 3 5 5 5 4 4 5 6 8 7 10 10 10 10 10 11 12 13 10 9 8
12 9 10 11 10 14 14 13 13 13 13 13 13 12 12 12 12 12 12 12 12 11 11 10 10 10 10 10 11 12 12 12 12 11 11 11 11 11 11 10 10 10 10 10 9 8 8 8 8 8 9 9 9 10 10 10 9 9 8 8 7 6 3 3 3 5 6 2 3 3 3 6 8 7 9 10 10 10 10 11 12 13 11 8 8
12 11 11 12 13 16 14 14 13 13 13 12 12 12 12 11 12 12 12 12 11 11 10 10 10 10 9 10 11 11 11 11 11 11 10 10 10 11 11 10 9 9 9 8 8 7 7 8 8 9 9 9 9 9 10 9 9 9 7 7 7 6 5 6 5 5 4 3 1 4 3 6 6 9 9 10 10 10 9 9 10 13 11 11 9
12 10 10 12 14 16 15 14 13 13 12 11 11 11 11 11 11 12 11 11 11 11 10 10 10 9 9 10 10 10 11 10 10 10 10 10 9 10 11 10 9 8 8 7 6 7 7 8 8 8 8 8 8 8 8 8 8 8 7 7 6 6 5 5 7 4 4 3 3 3 4 5 6 8 11 9 10 10 11 9 6 7 9 9 8
15 11 9 13 16 13 13 14 13 13 12 11 11 11 11 11 11 11 11 11 11 10 10 9 9 8 9 9 9 10 10 10 10 9 9 9 9 10 10 9 8 8 7 6 6 7 7 8 8 8 8 8 7 6 7 7 7 7 7 6 6 6 5 4 3 3 3 2 4 6 5 0 7 8 11 10 9 9 11 12 10 10 11 11 13
13 12 11 12 16 14 13 13 14 13 12 11 11 11 11 10 10 11 11 10 10 9 9 9 8 8 8 8 8 9 9 9 9 8 8 9 10 10 9 8 7 8 7 7 7 8 9 8 8 9 8 8 7 6 6 6 6 7 7 6 6 5 6 6 3 3 3 3 4 8 5 7 8 10 11 11 9 9 10 12 10 10 9 9 11
15 12 12 13 13 13 14 13 13 13 12 11 11 12 11 11 11 11 10 10 9 9 9 9 8 8 8 7 8 8 8 8 8 8 8 9 9 9 8 7 7 7 7 8 9 8 8 8 8 8 8 7 7 6 6 6 6 6 6 7 5 5 5 6 1 2 4 7 5 6 6 6 9 12 11 11 10 9 9 10 12 11 10 9 9
15 13 13 13 11 14 15 14 13 13 12 12 12 11 11 11 10 10 10 10 10 9 9 9 8 8 8 7 7 7 7 7 8 8 8 8 8 8 7 7 6 6 6 7 7 8 7 7 6 6 7 7 7 7 7 5 5 5 6 6 4 4 6 3 2 2 3 4 9 5 8 2 9 11 10 12 11 10 9 9 10 12 10 9 9
16 16 14 13 12 12 14 14 13 13 13 12 12 11 11 11 10 9 10 9 9 9 9 8 8 8 7 7 7 6 7 7 7 8 8 8 7 7 7 5 5 4 4 7 6 6 5 5 5 6 6 6 7 7 6 6 5 5 5 5 4 4 5 2 1 4 4 4 0 3 3 5 11 10 10 10 10 10 10 10 9 10 11 10 9
15 15 14 13 13 12 11 12 13 13 12 12 11 10 10 10 10 10 10 9 9 9 8 8 8 7 7 7 6 6 6 7 7 7 7 7 6 6 6 5 3 3 4 7 6 4 3 3 5 6 6 6 7 6 5 6 5 4 4 4 4 3 4 4 2 2 1 3 3 4 2 4 10 9 9 9 9 9 10 10 9 9 10 11 10
14 14 14 13 13 12 11 10 11 13 13 12 12 11 10 10 10 10 10 9 9 9 8 8 8 8 7 7 7 6 6 6 6 6 6 6 6 5 4 4 3 4 4 5 4 3 2 3 4 5 6 5 5 5 5 5 4 4 4 3 4 4 4 5 3 3 4 3 4 3 1 2 9 8 9 8 8 8 10 10 10 10 9 10 11
13 13 12 13 13 11 11 11 12 11 11 12 12 12 11 10 10 10 10 10 10 9 8 8 8 8 7 7 7 6 6 5 5 5 5 6 5 4 3 3 3 3 4 2 2 3 1 2 3 4 5 5 6 5 4 4 4 4 4 3 4 5 4 5 3 7 7 5 4 3 2 6 10 8 8 9 8 8 8 10 10 10 9 9 10
11 11 12 13 13 12 13 11 11 11 12 10 9 10 11 11 11 10 10 10 9 9 8 8 8 8 8 7 7 7 6 5 5 5 4 4 6 4 3 2 2 3 4 2 1 1 2 2 2 3 4 4 5 5 3 2 4 4 3 5 6 6 7 2 4 1 5 5 3 3 4 7 7 9 8 9 9 8 8 8 10 10 9 10 10
11 12 12 12 11 12 11 11 10 11 10 9 10 11 11 11 11 11 10 10 10 9 9 8 8 8 8 7 7 6 6 6 7 5 5 5 4 1 4 2 1 2 3 4 2 1 2 1 2 3 3 4 5 5 5 3 2 3 4 6 8 9 4 4 4 3 4 5 4 4 7 7 7 7 8 9 9 9 9 8 9 11 10 10 10
9 11 10 11 12 12 12 10 11 12 11 11 10 10 11 12 10 11 10 10 10 10 9 9 9 8 8 8 7 5 3 3 6 4 7 5 7 5 4 2 0 2 1 3 4 3 2 2 3 4 5 6 7 7 6 5 4 5 6 8 8 6 4 1 2 6 2 1 3 4 6 7 6 7 7 9 10 10 10 10 10 10 11 10 11
10 9 10 10 10 11 12 11 10 12 11 9 8 8 9 11 10 10 9 10 10 10 9 8 9 7 8 7 5 4 2 3 3 4 5 5 6 6 5 4 3 3 2 3 4 4 3 2 4 6 7 7 9 6 7 8 8 8 7 10 5 5 7 3 1 8 4 4 3 5 7 7 6 7 8 8 10 10 10 10 10 10 11 11 11
10 9 9 11 9 10 11 11 12 11 11 10 8 8 10 9 9 9 8 10 10 10 8 8 7 6 7 6 5 4 7 3 4 5 2 3 5 10 7 5 5 5 6 4 4 5 5 5 6 6 7 8 7 5 2 5 5 10 8 5 4 3 5 3 2 4 4 2 2 7 8 7 6 6 8 8 9 11 10 10 10 10 10 11 11
11 10 10 9 10 9 11 11 11 11 10 8 8 8 9 8 8 8 8 8 9 8 8 7 7 7 6 6 4 7 6 7 8 6 5 6 7 9 8 6 5 6 8 6 5 9 8 9 9 8 7 5 5 6 3 3 2 2 3 3 3 4 5 4 3 5 9 5 4 10 7 6 6 6 7 9 10 11 11 11 11 11 12 12 11
10 10 9 9 11 11 10 10 11 10 9 8 7 7 8 8 7 8 7 7 7 7 7 7 6 7 6 5 7 4 4 5 5 4 4 4 4 5 5 3 3 4 7 4 3 5 6 4 6 6 4 6 4 4 4 4 4 4 4 4 5 5 5 5 4 1 6 5 7 11 8 6 5 5 7 8 10 11 11 11 12 12 12 12 12
9 9 10 10 11 10 10 10 10 10 9 7 8 8 8 7 7 7 7 7 7 7 7 6 7 7 6 6 4 5 4 3 4 4 4 3 2 4 5 3 6 3 2 2 6 5 2 3 4 4 4 5 4 3 4 4 4 4 4 5 6 5 5 5 4 2 1 7 7 10 8 7 5 5 6 8 9 11 12 12 12 13 13 12 12
9 9 10 9 10 11 10 10 10 9 10 8 7 7 7 7 7 8 7 6 6 6 6 6 6 7 6 5 5 4 4 4 3 4 3 2 3 4 4 6 5 1 4 3 4 3 2 3 4 4 4 5 5 5 4 5 5 6 5 5 5 5 5 4 5 4 3 5 7 10 9 7 5 5 5 7 9 10 12 13 13 13 13 13 13
9 10 10 10 10 12 11 11 10 10 9 8 7 7 7 7 6 6 6 6 6 6 6 5 5 5 5 4 4 4 3 3 3 3 3 3 3 3 2 4 4 7 5 3 4 2 3 3 4 4 5 5 5 5 4 4 5 5 6 4 3 5 4 3 4 4 3 1 8 9 8 7 5 4 5 5 8 9 11 12 13 13 13 13 14
11 11 10 10 12 11 12 11 10 10 9 8 7 6 7 6 6 6 6 5 6 5 5 5 5 4 5 5 4 4 4 4 2 2 2 2 1 2 4 3 1 3 1 3 2 2 3 3 3 4 4 4 4 5 5 5 6 4 4 5 6 5 4 3 4 3 5 3 1 8 9 7 5 4 4 4 6 8 9 11 10 12 13 14 14
12 11 10 10 11 11 12 12 11 10 9 9 7 7 6 6 5 6 6 6 5 5 5 5 4 5 5 6 5 4 4 4 2 2 2 2 2 3 3 3 3 2 3 3 2 2 3 3 3 3 4 4 4 4 5 6 6 5 4 4 6 6 5 4 3 4 3 2 1 8 11 7 6 3 3 3 5 7 8 9 10 11 13 14 14
12 13 11 10 10 12 12 12 11 10 9 9 8 7 6 6 6 6 5 6 6 5 5 5 4 5 4 4 5 4 4 4 4 2 2 3 3 3 4 3 2 4 2 3 3 3 2 3 2 4 3 4 4 3 5 6 4 5 4 4 5 5 5 4 4 5 7 3 0 3 9 12 9 7 4 4 5 6 8 9 13 14 14 14 14
12 12 11 10 11 13 13 12 12 10 9 9 8 7 7 7 6 6 6 6 5 5 5 5 5 3 3 5 4 4 5 4 3 2 3 3 4 4 3 3 3 3 1 4 3 3 3 3 2 2 4 4 3 4 3 5 4 4 5 5 4 4 5 5 5 6 7 3 2 2 2 8 11 10 8 7 6 8 8 9 10 12 14 14 15
10 12 11 12 13 14 12 13 12 11 11 11 9 8 7 7 7 7 6 6 5 5 5 5 4 4 3 3 3 4 4 3 2 3 4 4 4 3 5 4 4 4 3 3 3 4 4 3 4 2 3 4 4 4 4 4 6 5 5 5 4 4 4 4 3 4 3 6 2 2 2 2 8 11 11 9 9 8 8 9 10 11 11 13 14
10 11 12 13 11 10 10 11 12 12 11 10 8 8 7 7 6 6 6 6 6 6 6 5 5 4 5 5 5 4 4 4 4 3 3 5 5 5 5 5 5 3 3 4 3 4 6 3 5 3 3 4 4 4 4 4 3 4 6 6 5 4 4 6 3 4 3 5 5 3 3 2 3 6 8 12 11 10 9 9 11 11 11 11 13
11 12 14 13 13 11 10 10 11 12 12 11 10 8 7 7 6 6 6 6 6 6 6 6 6 5 5 5 5 5 5 5 4 3 3 4 6 5 6 3 6 6 4 3 4 2 6 2 3 4 4 4 4 4 4 4 3 4 4 4 5 4 4 5 2 4 4 1 2 3 5 5 4 2 6 8 11 13 10 11 11 11 11 11 11
13 12 14 13 14 12 11 11 13 12 12 11 10 9 8 7 7 6 6 7 6 6 6 6 6 6 6 5 6 5 5 5 4 3 3 5 6 7 4 3 5 1 5 5 2 4 3 6 2 2 4 4 4 4 4 4 4 5 4 4 4 3 3 3 4 5 6 4 5 3 2 3 3 4 7 3 6 8 12 9 10 11 12 10 10
14 13 13 14 13 13 11 12 13 14 12 12 11 10 8 8 7 6 7 6 6 7 6 6 6 6 5 6 6 6 6 5 5 4 4 6 7 5 7 3 2 2 2 5 5 4 1 6 0 3 4 3 4 5 4 4 4 4 5 5 3 3 5 4 4 5 5 2 2 2 3 3 2 3 3 3 4 6 7 9 8 9 10 9 8
15 14 13 13 13 13 12 12 11 13 11 11 11 10 9 8 8 7 7 7 7 7 6 6 6 6 6 6 4 6 5 5 5 5 5 5 5 5 5 0 3 5 5 5 6 1 3 1 4 4 3 3 4 4 4 4 4 5 5 5 4 3 4 2 3 3 2 3 3 3 3 2 3 3 3 3 2 2 4 8 10 9 8 7 6
13 15 13 12 12 12 11 12 11 11 12 11 10 10 9 8 8 8 8 8 7 7 6 6 6 6 6 6 6 6 6 6 6 6 5 5 5 6 5 5 5 5 3 4 3 5 2 3 3 4 2 3 3 4 3 4 4 5 5 4 2 2 3 4 2 3 5 3 4 5 2 2 3 2 3 2 2 2 2 3 4 5 6 8 6
14 14 14 13 13 12 12 11 11 11 10 11 10 9 9 9 9 9 9 8 8 8 7 7 6 6 6 6 7 6 6 6 6 6 5 5 5 5 6 4 5 2 3 5 5 1 3 2 3 3 3 3 2 3 3 4 5 5 4 3 2 1 2 3 1 3 5 1 2 4 5 3 4 4 4 4 4 3 3 3 1 5 3 5 7
15 15 15 15 14 13 13 13 12 11 10 10 10 9 9 9 9 10 10 9 8 8 8 8 7 7 7 7 7 6 6 6 6 6 6 6 5 5 4 4 2 2 3 6 4 1 2 2 2 2 3 3 4 4 4 4 4 4 2 6 3 2 4 3 4 5 1 3 3 4 4 3 5 3 4 3 4 4 3 4 4 3 3 5 2
16 16 16 15 14 14 14 13 11 12 12 11 9 10 10 9 9 9 8 9 9 8 8 8 8 7 6 7 6 6 7 7 7 7 6 5 4 4 4 3 0 0 7 3 3 2 1 1 1 2 3 3 3 4 3 2 2 6 2 2 2 4 1 3 8 2 5 2 2 6 3 4 4 5 4 2 2 4 4 4 4 3 3 3 3
17 17 16 16 15 14 13 13 12 12 12 11 10 10 10 9 9 8 9 8 8 8 7 7 6 6 6 7 6 6 7 6 5 5 4 5 4 4 3 2 4 4 2 2 2 1 1 1 2 2 2 3 4 2 2 3 4 3 1 3 2 4 5 4 4 3 5 5 5 4 5 4 4 3 3 3 4 4 4 5 4 4 4 4 2
16 16 16 17 14 14 14 14 12 12 11 12 11 11 11 10 10 9 8 8 6 6 7 5 6 7 8 7 7 6 6 5 5 4 4 4 5 4 3 4 3 2 2 1 2 1 1 2 2 2 2 5 5 6 4 3 3 4 2 3 5 4 3 4 5 2 2 6 4 6 5 1 5 4 3 4 5 4 3 4 3 4 4 4 4
17 17 17 16 13 16 15 15 13 13 11 12 13 11 10 10 9 9 9 8 7 6 6 7 7 7 7 7 7 7 6 5 6 6 5 4 3 3 3 3 4 4 2 2 1 2 3 3 2 0 3 4 5 2 2 2 1 2 3 4 4 4 4 3 1 3 4 2 3 8 6 2 3 2 2 3 2 2 2 4 3 3 2 3 3
17 17 17 17 16 15 15 15 13 12 12 13 13 11 10 10 10 9 10 9 9 8 8 8 7 7 7 6 7 6 5 5 4 4 5 4 4 4 3 4 5 3 3 2 1 1 2 3 3 4 3 3 3 4 3 2 1 1 3 2 1 3 4 3 6 1 3 5 3 5 4 0 5 3 0 1 1 0 2 2 2 1 2 2 3
18 16 16 17 17 15 15 16 13 12 12 12 14 11 11 10 12 11 9 9 8 7 7 7 6 6 6 7 6 7 6 6 6 6 5 4 3 3 4 4 4 4 3 2 2 3 4 4 2 3 2 1 1 3 1 5 3 2 4 3 2 4 1 4 4 2 2 0 6 5 7 6 2 2 4 1 4 1 2 3 2 3 1 2 2
18 17 17 16 17 16 16 16 13 13 12 12 13 12 11 11 11 10 9 9 9 8 8 7 7 5 6 6 5 5 6 5 5 6 5 4 4 4 4 4 4 3 3 3 3 3 1 1 1 1 1 1 2 2 3 5 2 2 2 1 4 1 2 3 2 4 2 4 2 3 6 5 5 1 6 5 3 4 1 1 2 2 1 2 1
18 17 17 16 16 16 16 15 15 14 13 14 13 14 12 11 11 10 9 8 8 8 7 7 7 6 5 4 3 4 5 5 4 5 5 5 5 5 5 5 4 3 3 3 5 4 3 2 3 2 2 3 2 2 2 3 3 3 4 1 1 4 5 4 5 3 3 5 5 4 5 5 5 4 5 2 2 1 1 3 0 3 3 2 2
18 17 17 16 16 15 16 16 16 14 13 14 14 14 14 11 11 10 11 9 8 7 7 7 6 5 6 6 5 4 5 5 6 5 5 5 6 6 6 6 5 4 4 4 4 2 3 3 4 4 3 3 1 2 4 3 3 4 2 2 3 1 4 3 3 3 2 1 5 6 4 6 5 1 1 5 3 4 4 4 3 3 2 3 2
17 18 18 17 16 16 17 18 17 14 14 15 15 15 14 13 11 11 12 11 11 9 8 7 6 7 6 7 7 6 5 5 5 5 6 6 7 6 6 6 5 5 4 3 4 3 5 5 4 5 4 4 3 4 4 3 3 1 1 1 1 4 3 3 3 5 4 2 3 5 7 6 7 6 3 3 4 5 5 4 4 4 0 4 2
Wind_Direction
131 111 128 127 120 117 143 145 127 135 152 147 141 132 119 115 113 110 112 113 113 112 112 108 104 100 95 92 90 87 87 88 86 86 85 85 85 85 86 86 88 91 89 84 84 85 84 83 79 77 75 71 69 62 66 70 73 77 77 74 66 69 72 70 57 90 97 100 100 104 102 103 102 99 100 97 97 103 96 111 127 112 111 119 116
133 128 130 134 134 144 156 131 127 128 118 125 120 115 116 117 114 115 112 113 115 114 110 108 105 101 97 94 91 89 89 88 86 85 85 84 84 85 85 86 86 86 83 83 84 86 84 80 77 75 72 69 66 66 65 69 74 73 73 76 74 76 79 80 83 84 93 102 105 101 111 103 97 100 98 96 96 92 88 101 138 143 121 113 121
128 130 134 135 138 138 127 127 129 128 121 116 116 117 121 121 118 116 116 115 114 113 112 109 105 101 98 95 92 90 88 86 85 84 84 83 83 82 84 85 83 82 82 81 82 82 80 79 73 69 65 67 62 61 61 63 72 67 71 73 74 74 78 83 81 82 94 104 101 109 113 107 102 100 97 97 94 89 82 97 99 80 116 138 122
124 127 134 137 142 137 129 122 116 113 109 105 113 119 122 122 121 118 117 115 114 114 111 109 105 102 99 96 94 92 89 87 86 85 83 84 84 85 86 85 83 80 78 79 79 81 80 75 67 62 60 60 60 59 58 61 64 72 67 63 66 66 60 65 75 86 98 143 120 127 115 114 110 101 100 99 95 90 89 94 109 114 128 130 118
123 128 132 142 144 140 133 123 119 115 114 118 119 119 122 125 123 124 123 121 117 117 115 110 107 103 99 96 94 93 92 90 88 86 86 86 86 87 86 84 82 79 77 76 75 74 73 72 66 61 57 53 54 55 56 54 56 61 65 62 58 60 45 16 36 45 310 282 217 146 205 109 111 104 105 104 100 96 103 103 101 106 116 121 112
124 129 137 142 143 140 139 132 126 123 125 128 125 125 130 127 127 127 128 126 123 118 116 111 106 101 98 96 95 94 93 91 88 88 89 88 90 89 88 84 81 77 74 71 69 66 67 68 66 63 56 52 51 52 51 53 55 55 60 59 59 52 46 22 344 337 293 298 293 195 146 142 107 112 108 108 108 101 101 110 115 119 137 111 114
125 134 139 139 141 141 145 139 132 129 128 128 130 131 130 128 128 126 128 128 125 122 116 111 107 101 98 98 96 94 92 91 88 88 89 89 89 89 86 84 82 78 71 66 63 60 62 65 64 62 54 50 49 49 47 52 46 45 55 58 56 56 35 21 332 310 316 302 318 64 83 97 107 105 116 114 108 101 98 105 115 116 111 111 129
131 140 139 135 136 142 149 145 133 130 130 130 129 129 129 129 128 127 129 130 128 124 116 115 107 102 100 97 96 93 92 91 92 91 89 89 87 87 85 83 79 73 67 61 58 59 58 59 56 52 52 52 47 45 43 44 53 41 36 46 50 52 27 355 315 309 320 288 207 74 75 94 105 104 115 113 111 107 105 107 113 116 119 121 105
133 136 141 139 134 138 144 141 138 132 128 130 130 130 130 130 131 130 130 129 128 122 120 117 110 107 104 100 96 95 93 94 94 90 87 86 88 87 86 82 77 71 67 63 55 54 53 54 53 51 50 46 43 42 38 37 37 47 40 33 39 44 30 355 328 305 284 265 14 93 81 107 110 108 117 116 112 112 106 102 114 117 118 117 133
131 138 163 137 137 136 145 138 134 132 132 131 130 133 131 130 132 132 129 129 127 127 125 117 112 111 107 101 96 98 97 96 95 92 89 89 88 86 84 83 77 74 67 63 56 53 44 45 45 43 44 41 37 36 36 30 34 28 30 30 33 25 26 2 337 283 256 233 110 91 73 13 98 100 117 116 115 111 97 113 119 108 121 126 123
137 143 137 134 131 128 131 141 137 137 136 135 140 134 133 130 131 132 132 131 132 129 121 115 113 113 108 105 105 103 103 100 97 96 95 93 91 88 85 83 80 77 73 68 55 52 49 42 35 32 32 31 32 29 30 32 25 23 23 20 18 13 353 357 327 314 293 6 68 40 113 152 106 104 123 119 118 109 108 113 114 125 123 127 131
131 133 138 128 123 132 136 143 144 140 138 138 141 139 135 135 134 134 136 134 131 123 118 117 119 116 113 110 110 107 107 107 105 106 104 97 92 90 89 86 80 74 71 64 53 48 45 41 33 24 14 14 12 16 10 25 19 18 22 15 11 360 347 334 347 310 311 321 118 147 212 115 114 112 125 122 118 119 112 113 116 124 122 131 134
128 129 131 135 139 134 141 144 146 141 139 141 144 144 143 143 138 139 138 135 130 127 125 123 124 121 118 116 114 114 112 111 112 111 106 98 93 94 90 85 79 76 71 65 60 51 39 27 13 10 3 358 8 3 360 5 24 16 13 8 8 10 331 342 9 307 357 356 33 319 61 90 97 125 132 127 122 121 117 120 131 128 127 139 133
126 136 143 139 135 140 145 147 147 146 144 145 147 149 146 143 141 141 141 140 136 133 130 130 130 129 127 128 124 123 119 116 117 113 106 102 96 94 93 85 77 78 77 69 53 43 34 23 10 358 347 349 356 0 352 348 5 21 4 0 360 351 337 310 24 342 31 9 6 15 60 342 114 130 135 133 134 130 130 128 134 134 138 137 134
137 145 141 136 139 145 141 147 147 150 147 146 149 150 147 143 144 149 144 145 139 132 134 136 134 135 138 136 134 130 127 122 120 114 110 106 104 93 85 81 75 77 85 76 56 41 31 20 2 352 345 346 353 3 348 348 349 354 360 337 339 340 329 340 61 30 38 89 139 61 284 112 116 137 136 139 140 142 142 138 140 142 140 142 138
136 136 137 141 145 141 146 147 148 148 148 146 148 149 150 149 151 154 151 148 142 143 143 141 141 145 145 145 145 140 136 134 125 119 111 110 106 95 82 76 66 43 69 88 87 79 47 10 354 342 340 347 340 347 356 1 2 357 354 351 329 353 323 321 66 101 42 224 120 59 324 112 127 135 140 142 144 142 148 150 149 149 147 146 144
129 137 141 141 144 150 149 155 148 150 152 153 151 153 153 156 160 159 157 152 150 149 151 148 150 152 153 155 152 152 143 138 129 120 120 108 99 92 90 74 42 23 37 80 93 91 41 343 335 328 326 327 322 334 356 5 2 352 357 357 326 322 313 293 90 83 247 168 76 133 125 166 136 144 145 146 150 150 152 158 158 157 157 154 149
134 140 140 145 148 154 151 151 151 159 154 157 156 157 157 163 165 161 159 159 155 155 158 157 159 158 160 160 157 155 151 139 136 134 129 116 113 116 103 53 33 10 4 24 37 34 31 329 323 314 316 317 312 325 3 349 339 339 330 327 299 302 287 271 128 177 195 100 119 139 155 93 140 147 155 154 155 159 161 162 163 164 163 159 156
140 145 146 150 153 155 152 148 158 160 156 163 162 158 162 168 168 165 163 164 160 161 162 164 164 167 165 165 165 160 158 158 153 154 155 143 128 134 126 79 32 11 341 332 10 345 339 311 332 301 304 302 306 317 341 328 324 311 319 283 283 289 272 242 255 113 77 94 173 138 136 147 155 155 156 164 166 166 171 175 169 169 173 166 161
147 149 148 149 150 152 150 153 157 159 164 162 161 161 166 170 171 169 167 166 166 165 167 170 174 173 173 170 172 173 172 178 177 178 177 172 160 184 127 102 22 10 337 336 319 287 272 291 266 263 265 273 273 267 274 273 272 300 289 272 262 273 269 217 221 135 133 163 153 111 128 143 146 160 172 172 176 174 169 179 181 175 173 169 167
146 149 147 148 155 151 153 153 160 161 167 161 163 164 159 171 170 171 171 169 171 173 172 178 182 182 179 179 184 200 189 178 188 202 174 200 161 153 145 162 112 344 358 327 318 324 339 263 228 244 244 251 251 248 246 234 207 228 247 260 257 255 269 253 259 52 341 79 113 115 132 136 153 168 182 180 179 183 174 175 177 183 177 173 176
151 149 151 153 152 152 157 156 160 164 164 164 163 164 158 177 173 170 176 173 177 180 182 191 192 184 194 181 202 175 164 178 231 217 187 180 162 158 172 172 195 219 267 276 299 286 273 248 238 235 247 241 252 237 220 223 217 214 232 254 272 235 222 326 44 155 156 75 96 128 144 138 160 169 185 186 187 187 179 178 182 181 182 184 181
155 153 157 156 162 154 160 163 158 164 164 164 163 163 164 177 176 177 174 182 179 188 192 199 191 198 191 195 192 168 166 207 220 224 178 127 164 180 184 195 195 215 233 255 233 247 250 238 236 232 237 248 252 283 203 198 200 221 229 250 228 285 336 275 342 81 56 99 139 148 148 151 166 183 182 192 195 188 187 181 181 184 186 192 189
159 159 160 160 163 162 161 162 160 163 164 170 164 164 171 176 179 179 178 182 181 190 198 199 199 202 194 208 192 203 177 178 172 180 231 221 207 187 195 197 212 219 240 230 229 239 221 232 236 228 227 231 248 231 323 331 335 297 303 299 341 334 312 320 322 52 130 203 155 156 153 159 171 189 193 191 194 196 192 184 184 187 188 191 193
165 156 157 164 164 165 164 162 163 165 172 167 168 173 170 179 179 181 180 185 186 188 194 199 201 202 204 205 220 184 199 205 154 196 238 229 159 190 184 178 207 198 228 226 215 241 207 236 218 221 229 239 257 335 320 340 321 324 322 323 318 325 313 318 304 255 116 197 142 154 154 158 172 210 207 193 198 196 197 188 189 189 191 192 193
160 165 163 162 166 166 170 159 168 168 178 174 171 174 175 180 181 182 182 191 186 189 193 188 196 198 205 215 206 208 204 234 177 206 219 211 242 243 146 176 210 199 264 177 203 245 278 260 341 322 324 326 334 317 327 322 315 304 315 307 313 312 311 313 315 332 308 138 135 150 148 151 180 194 212 210 204 199 196 193 194 195 193 193 195
169 165 166 166 165 170 175 167 168 174 181 177 178 171 187 187 174 190 188 188 187 189 198 190 194 190 209 229 225 213 210 210 206 197 223 234 233 236 148 178 214 145 211 249 242 278 267 318 319 326 325 326 332 321 322 318 336 319 312 313 299 298 299 302 310 319 309 122 135 148 145 150 165 193 211 213 210 207 203 196 194 199 197 195 196
175 164 169 170 171 175 176 173 172 180 182 183 184 182 186 193 184 180 196 180 190 196 199 192 184 181 205 217 244 269 253 223 203 206 216 222 227 266 165 244 153 206 174 313 306 314 337 303 304 325 314 321 329 319 314 321 300 290 280 279 290 288 299 303 289 295 299 272 134 144 135 143 158 188 201 213 215 211 212 204 198 197 200 197 200
178 170 173 175 173 177 172 179 175 183 183 186 191 193 188 196 182 187 196 180 207 198 200 192 187 196 182 223 221 248 250 258 239 244 238 231 251 242 262 233 242 294 305 225 278 302 288 295 308 312 315 312 311 324 329 304 285 284 351 332 325 311 282 300 303 319 301 319 159 134 142 147 160 179 192 205 217 215 212 213 206 213 203 200 201
181 175 177 180 176 175 179 179 184 182 186 191 195 196 190 200 190 195 197 189 210 217 187 208 193 193 195 193 212 239 264 273 263 250 261 258 245 237 241 257 251 229 250 267 259 263 277 296 295 297 312 311 319 343 315 303 304 346 313 351 314 311 332 316 313 286 288 267 211 142 149 143 148 186 185 182 210 212 206 198 201 219 224 211 206
173 183 179 182 177 181 181 182 187 181 189 200 191 194 193 198 193 199 195 201 201 209 212 218 215 200 197 150 183 216 251 259 277 287 266 253 238 238 249 277 256 240 246 262 265 270 287 276 298 302 311 311 319 325 295 301 308 297 0 328 313 316 318 309 313 267 226 217 208 129 159 155 162 173 184 204 197 213 209 205 200 210 219 219 214
176 188 181 182 180 188 183 184 187 182 194 201 190 197 193 197 198 205 205 202 200 214 213 220 220 226 199 166 182 209 227 252 280 280 263 269 268 261 259 248 278 284 300 278 294 305 294 292 278 290 294 289 303 282 295 294 309 334 343 287 354 326 324 331 301 325 356 292 289 267 175 165 165 173 184 186 211 205 214 214 213 216 218 216 216
183 187 189 181 183 189 186 183 187 181 195 203 190 199 195 197 201 209 206 204 208 216 224 214 216 214 198 199 185 190 210 233 231 245 250 259 277 272 259 255 268 268 286 343 269 268 265 234 235 214 267 303 288 296 293 305 335 359 294 336 335 320 322 306 281 268 312 2 262 158 291 166 168 176 180 189 195 210 217 220 223 221 219 219 218
185 179 195 187 191 186 189 186 189 184 193 203 196 197 199 199 204 204 210 207 211 218 221 224 215 215 212 193 202 204 215 218 227 231 242 255 250 245 260 261 222 238 256 217 225 230 248 282 320 282 301 294 309 314 318 317 342 337 325 342 304 344 339 285 353 351 331 249 5 334 243 236 183 182 179 186 190 196 204 219 221 223 223 222 222
189 184 191 189 198 189 190 188 189 189 189 205 199 203 201 208 203 205 208 206 214 216 221 218 213 216 228 189 198 207 214 217 217 219 235 266 267 284 246 232 355 290 251 297 257 297 288 282 233 335 311 295 294 325 308 313 341 321 304 319 309 328 327 308 19 303 236 19 244 350 1 332 331 301 177 177 187 187 193 203 214 219 220 224 225
194 190 186 192 194 199 189 196 183 194 192 202 202 204 205 206 217 207 214 207 221 221 225 224 219 209 214 219 191 206 192 193 214 208 239 252 258 251 324 259 174 124 253 263 237 298 347 309 308 291 260 292 330 300 307 317 345 305 321 296 297 323 303 325 333 270 35 14 4 9 6 13 341 325 341 303 177 180 182 191 211 211 216 218 222
193 191 188 188 192 199 192 204 188 190 194 195 203 200 205 207 220 219 219 215 221 221 218 221 226 222 216 220 180 190 203 189 203 214 233 246 261 258 239 347 326 255 334 250 254 245 58 252 53 259 278 320 292 290 314 323 300 307 279 292 317 357 294 334 309 357 36 341 277 209 93 93 52 12 304 305 330 131 175 187 194 212 221 223 224
189 192 190 188 193 196 193 203 201 188 193 193 199 202 202 209 211 220 219 223 223 229 219 218 222 220 222 217 191 185 195 193 202 208 221 243 256 260 273 220 301 243 239 288 270 306 210 314 265 242 301 330 292 320 322 325 325 307 318 296 356 331 312 290 320 327 261 224 142 288 158 72 78 34 18 51 313 135 169 186 193 198 206 216 226
190 191 190 187 192 196 194 195 204 197 189 195 193 204 204 206 215 217 218 218 227 228 229 223 220 219 218 211 195 194 202 200 201 204 219 225 233 244 243 209 237 278 253 264 249 240 292 247 289 324 345 285 310 311 328 311 287 266 266 292 26 303 300 325 354 315 310 21 12 303 77 74 51 73 65 36 34 64 67 144 196 206 196 187 195
191 188 188 188 192 195 197 189 200 200 192 188 195 200 205 206 209 217 218 217 223 220 220 222 216 218 215 209 194 198 203 200 204 197 203 230 235 242 234 223 224 253 295 278 267 318 253 265 274 317 283 268 235 289 283 279 285 302 299 291 242 194 308 336 296 264 258 115 33 333 358 72 68 13 32 15 21 33 35 14 26 89 99 157 195
190 189 188 192 193 195 194 195 193 200 200 194 196 200 202 203 212 216 216 211 215 217 219 219 222 224 215 209 200 201 194 198 198 195 206 216 227 239 242 231 207 179 20 276 268 311 33 323 324 269 289 277 266 223 243 273 294 293 248 273 147 229 179 216 244 226 239 306 89 344 31 343 45 22 38 43 22 33 15 14 9 30 120 165 188
191 193 191 193 192 196 197 197 192 197 201 199 198 202 205 206 205 214 217 214 215 219 218 220 224 224 207 210 200 212 200 194 199 200 196 202 211 227 226 216 144 263 215 223 77 69 82 308 316 274 209 275 280 289 347 305 266 259 272 245 239 155 271 207 230 320 259 170 213 153 151 52 24 5 5 44 55 55 33 36 22 22 10 14 151
192 194 192 192 194 197 199 196 198 195 199 202 198 205 209 211 216 215 219 226 221 215 226 224 222 223 210 205 213 211 199 198 185 190 189 208 223 229 226 188 175 184 131 117 106 130 176 327 252 281 285 189 229 248 254 287 284 297 349 272 281 239 183 263 261 201 265 124 235 103 360 52 44 14 347 15 31 29 44 33 25 19 10 354 8
193 193 193 194 195 197 196 197 199 198 197 200 202 207 211 212 216 222 221 231 229 215 219 220 219 221 217 213 206 205 197 200 190 176 219 198 214 232 201 182 172 130 145 172 211 200 127 214 233 199 303 295 225 179 195 200 291 301 292 305 233 256 213 190 201 163 270 34 332 42 77 8 82 23 360 5 29 358 59 40 36 20 7 13 356
195 194 195 194 196 196 196 196 198 200 198 197 201 205 205 210 213 215 224 225 227 224 215 214 217 218 221 206 207 199 196 207 186 198 216 215 218 216 200 166 155 162 164 185 177 218 180 195 184 123 242 289 316 315 178 197 250 330 304 256 277 245 13 330 179 131 284 238 251 126 135 239 79 59 351 25 5 346 4 69 30 31 20 9 3
196 196 196 196 195 194 194 195 198 198 201 198 199 201 207 205 202 205 209 212 215 208 212 214 211 216 222 221 209 209 201 199 204 205 202 198 190 186 176 156 166 170 190 247 146 161 224 263 174 220 211 213 296 305 304 282 211 232 272 271 286 319 307 328 290 78 323 287 229 282 340 270 107 142 357 181 107 228 13 71 45 75 18 38 18
196 197 196 197 195 194 193 194 197 198 200 200 199 200 205 209 211 213 215 218 221 217 220 223 230 218 217 212 190 194 190 200 187 187 192 188 178 165 170 177 181 183 183 195 190 217 203 198 224 207 236 10 208 270 306 256 134 239 211 257 301 280 334 303 335 313 230 228 317 320 171 137 19 289 179 174 166 77 33 354 358 348 79 12 27
197 196 198 198 194 194 193 194 196 199 198 198 200 198 201 204 207 215 218 219 222 222 212 215 219 224 210 203 193 175 166 197 198 168 189 175 176 172 178 194 194 217 186 202 237 239 293 113 201 215 188 164 216 273 280 320 283 245 80 298 216 147 325 291 349 335 308 267 195 253 302 224 143 168 349 323 348 83 6 286 332 286 263 114 288
197 196 197 196 195 194 194 193 196 197 197 196 197 197 201 201 204 206 212 216 223 223 215 207 206 202 211 194 183 178 163 177 199 173 187 191 179 185 182 198 195 207 181 226 218 203 207 213 193 207 217 195 217 242 289 284 283 277 108 186 317 243 201 230 135 218 293 314 296 215 204 8 355 270 152 338 263 9 308 144 110 298 288 184 192
198 195 195 195 194 193 194 194 196 195 197 195 196 198 198 201 203 206 210 213 214 217 223 201 193 187 198 192 182 181 176 181 185 191 181 206 196 190 189 197 198 209 226 235 223 223 194 204 217 218 211 239 186 213 224 236 244 314 122 125 243 10 1 324 288 225 228 311 286 307 327 246 240 294 124 255 55 331 327 334 306 234 237 311 283
198 194 194 194 193 192 193 195 196 196 196 195 195 198 199 201 203 203 206 212 210 211 209 210 194 191 197 196 188 184 190 183 197 181 204 202 208 202 198 199 208 221 225 235 259 242 201 194 223 208 216 222 192 208 242 223 271 292 226 212 281 237 185 296 306 333 342 271 265 291 286 345 346 336 298 349 327 298 272 237 256 263 66 294 270